GW3840 Weather Reports


time (UTC)temp
F
wind
direction
speed
knots
gust
knots
rain 1hr
in
rain 24hr
in
rain mn
in
humidity
%
barometer
mb
20260902085426 67 121 1.7 1.7 0.00 0.00 0.00 87 1015.6
20260902084921 67 136 0.9 0.9 0.00 0.00 0.00 87 1015.8
20260902084418 67 165 0.9 1.7 0.00 0.00 0.00 87 1015.6
20260902083913 67 193 0.0 0.0 0.00 0.00 0.00 89 1015.5
20260902083413 67 188 0.0 0.0 0.00 0.00 0.00 89 1015.5
20260902082908 67 188 0.0 0.0 0.00 0.00 0.00 89 1015.7
20260902082403 67 199 0.0 0.0 0.00 0.00 0.00 88 1015.4
20260902081900 66 174 0.0 0.0 0.00 0.00 0.00 90 1015.3
20260902081355 66 190 0.0 0.0 0.00 0.00 0.00 90 1015.1
20260902080850 66 192 0.0 0.0 0.00 0.00 0.00 89 1015.1
20260902080347 67 193 0.0 0.0 0.00 0.00 0.00 88 1015.1
20260902075846 67 189 0.0 0.0 0.00 0.00 0.00 87 1014.9
20260902075343 67 178 0.0 0.0 0.00 0.00 0.00 86 1014.5
20260902074843 68 178 0.0 0.0 0.00 0.00 0.00 85 1014.5
20260902074338 69 177 0.0 0.0 0.00 0.00 0.00 83 1014.5
20260902073833 70 154 0.0 0.0 0.00 0.00 0.00 81 1014.2
20260902073330 70 95 0.9 1.7 0.00 0.00 0.00 80 1014.3
20260902072825 70 20 0.9 1.7 0.00 0.00 0.00 80 1014.1
20260902072320 69 44 1.7 1.7 0.00 0.00 0.00 81 1014.3
20260902071817 69 189 0.0 0.0 0.00 0.00 0.00 81 1014.2
20260902071312 69 345 0.0 0.9 0.00 0.00 0.00 81 1014.1
20260902070808 69 330 0.0 0.9 0.00 0.00 0.00 82 1014.3
20260902070308 69 164 0.0 0.0 0.00 0.00 0.00 83 1014.1
20260902065807 69 143 0.0 0.0 0.00 0.00 0.00 82 1014.3
20260902065302 70 143 0.0 0.0 0.00 0.00 0.00 82 1014.3
20260902064757 69 179 0.0 0.9 0.00 0.00 0.00 81 1014.5
20260902064253 69 184 0.0 0.9 0.00 0.00 0.00 83 1014.5
20260902063749 70 152 0.0 0.0 0.00 0.00 0.00 84 1014.4
20260902063243 70 50 0.0 0.9 0.00 0.00 0.00 84 1014.6
20260902062743 70 47 0.9 1.7 0.00 0.00 0.00 85 1014.7
20260902062238 70 21 2.6 3.5 0.00 0.00 0.00 84 1014.9
20260902061737 69 281 0.9 1.7 0.00 0.00 0.00 86 1014.9
20260902061232 70 92 0.9 1.7 0.00 0.00 0.00 86 1014.9
20260902060730 70 96 0.9 1.7 0.00 0.00 0.00 86 1014.5
20260902060225 70 11 1.7 1.7 0.00 0.00 0.00 85 1014.7
20260902055720 70 56 0.9 1.7 0.00 0.00 0.00 85 1014.5
20260902055216 70 75 0.9 1.7 0.00 0.00 0.00 85 1014.6
20260902054711 70 3 0.0 1.7 0.00 0.00 0.00 87 1015.0
20260902054207 70 198 0.0 0.0 0.00 0.00 0.00 88 1015.1
20260902053702 70 276 0.9 1.7 0.00 0.00 0.00 88 1015.3
20260902053202 68 338 0.9 1.7 0.00 0.00 0.00 91 1015.4
20260902052701 67 190 0.0 0.0 0.00 0.00 0.00 91 1015.5
20260902052157 67 177 0.0 0.0 0.00 0.00 0.00 90 1015.5
20260902051656 67 163 0.0 0.0 0.00 0.00 0.00 90 1015.4
20260902051151 67 163 0.0 0.0 0.00 0.00 0.00 90 1015.5
20260902050651 67 160 0.0 0.0 0.00 0.00 0.00 89 1015.5
20260902050146 68 160 0.0 0.0 0.00 0.00 0.00 89 1015.5
20260902045641 68 159 0.0 0.0 0.00 0.00 0.00 89 1015.6
20260902045137 68 170 0.0 0.0 0.00 0.00 0.00 89 1015.7
20260902044632 68 154 0.0 0.0 0.00 0.00 0.00 88 1015.8
20260902044128 68 152 0.0 0.0 0.00 0.00 0.00 88 1016.0
20260902043623 68 143 0.0 0.0 0.00 0.00 0.00 88 1015.9
20260902043118 68 185 0.0 0.0 0.00 0.00 0.00 88 1015.9
20260902042617 68 186 0.0 0.0 0.00 0.00 0.00 87 1015.9
20260902042113 69 186 0.0 0.0 0.00 0.00 0.00 87 1016.0
20260902041612 69 186 0.0 0.0 0.00 0.00 0.00 87 1016.0
20260902041108 69 183 0.0 0.0 0.00 0.00 0.00 86 1015.8
20260902040607 69 225 0.0 0.0 0.00 0.00 0.00 86 1016.1
20260902035600 69 163 0.0 0.0 0.00 0.00 0.00 86 1015.9
20260902035056 69 190 0.0 0.0 0.00 0.00 0.00 86 1016.1
20260902034555 69 186 0.0 0.0 0.00 0.00 0.00 85 1016.1
20260902034054 69 181 0.0 0.0 0.00 0.00 0.00 85 1015.9
20260902033554 69 181 0.0 0.0 0.00 0.00 0.00 84 1016.0
20260902033049 69 181 0.0 0.0 0.00 0.00 0.00 84 1016.0
20260902032548 69 180 0.0 0.0 0.00 0.00 0.00 83 1016.0
20260902032043 69 171 0.0 0.0 0.00 0.00 0.00 82 1015.9
20260902031537 69 168 0.0 0.0 0.00 0.00 0.00 82 1016.1
20260902031034 70 162 0.0 0.0 0.00 0.00 0.00 82 1015.9
20260902030534 70 217 0.0 0.0 0.00 0.00 0.00 81 1016.1
20260902030034 70 216 0.0 0.0 0.00 0.00 0.00 80 1016.1
20260902025528 70 216 0.0 0.0 0.00 0.00 0.00 80 1016.1
20260902025024 70 226 0.0 0.0 0.00 0.00 0.00 81 1016.0
20260902024519 69 190 0.0 0.0 0.00 0.00 0.00 80 1016.0
20260902024019 70 189 0.0 0.0 0.00 0.00 0.00 81 1015.9
20260902023510 70 189 0.0 0.0 0.00 0.00 0.00 80 1015.9
20260902023009 70 185 0.0 0.0 0.00 0.00 0.00 80 1015.7
20260902022504 70 139 0.0 0.0 0.00 0.00 0.00 80 1015.6
20260902022000 70 199 0.0 0.0 0.00 0.00 0.00 80 1015.7
20260902021455 70 200 0.0 0.0 0.00 0.00 0.00 79 1015.7
20260902020950 70 200 0.0 0.0 0.00 0.00 0.00 79 1015.5
20260902020446 71 200 0.0 0.0 0.00 0.00 0.00 78 1015.6
20260902015942 71 200 0.0 0.0 0.00 0.00 0.00 77 1015.6
20260902015437 71 200 0.0 0.0 0.00 0.00 0.00 77 1015.5
20260902014932 71 227 0.0 0.0 0.00 0.00 0.00 75 1015.5
20260902014429 71 200 0.0 0.0 0.00 0.00 0.00 80 1015.6
20260902013928 71 199 0.0 0.0 0.00 0.00 0.00 80 1015.7
20260902013424 72 199 0.0 0.0 0.00 0.00 0.00 79 1015.6
20260902012919 72 192 0.0 0.0 0.00 0.00 0.00 79 1015.7
20260902012414 72 192 0.0 0.0 0.00 0.00 0.00 78 1015.7
20260902011909 72 191 0.0 0.0 0.00 0.00 0.00 77 1015.6
20260902011404 72 172 0.0 0.0 0.00 0.00 0.00 76 1015.5
20260902010859 72 143 0.0 0.0 0.00 0.00 0.00 76 1015.5
20260902010353 72 212 0.0 0.0 0.00 0.00 0.00 75 1015.6
20260902005852 72 213 0.0 0.0 0.00 0.00 0.00 73 1015.5
20260902005346 72 211 0.0 0.0 0.00 0.00 0.00 73 1015.3
20260902004842 72 211 0.0 0.0 0.00 0.00 0.00 74 1015.2
20260902004336 72 208 0.0 0.0 0.00 0.00 0.00 72 1015.1
20260902003832 73 207 0.0 0.0 0.00 0.00 0.00 70 1015.1
20260902003327 73 207 0.0 0.0 0.00 0.00 0.00 71 1015.1
20260902002822 73 207 0.0 0.0 0.00 0.00 0.00 71 1015.0
20260902002321 74 209 0.0 0.0 0.00 0.00 0.00 71 1015.2
20260902001817 74 190 0.0 0.0 0.00 0.00 0.00 69 1015.2
20260902001312 74 190 0.0 0.0 0.00 0.00 0.00 68 1015.2
20260902000807 75 171 0.0 0.9 0.00 0.00 0.00 67 1015.2
20260902000307 75 167 0.0 0.0 0.00 0.00 0.00 65 1015.0
20260901235802 76 188 0.0 0.0 0.00 0.00 0.00 64 1015.5
20260901235257 76 238 0.0 0.9 0.00 0.00 0.00 63 1015.7
20260901234756 76 229 0.0 0.9 0.00 0.00 0.00 63 1015.6
20260901234246 76 236 0.0 0.9 0.00 0.00 0.00 62 1015.6
20260901233740 77 224 0.9 1.7 0.00 0.00 0.00 61 1015.7
20260901233237 77 227 0.0 0.0 0.00 0.00 0.00 61 1015.6
20260901232736 77 221 0.9 0.9 0.00 0.00 0.00 60 1015.5
20260901232232 77 318 0.9 0.9 0.00 0.00 0.00 59 1015.7
20260901231728 77 224 0.0 0.9 0.00 0.00 0.00 58 1015.7
20260901231224 78 233 0.9 1.7 0.00 0.00 0.00 58 1015.9
20260901230719 78 234 0.9 1.7 0.00 0.00 0.00 57 1015.8
20260901230213 78 241 1.7 1.7 0.00 0.00 0.00 56 1016.0
20260901225708 78 276 1.7 1.7 0.00 0.00 0.00 55 1016.0
20260901225203 78 269 1.7 2.6 0.00 0.00 0.00 54 1016.1
20260901224659 78 291 1.7 1.7 0.00 0.00 0.00 53 1016.1
20260901224155 78 264 1.7 1.7 0.00 0.00 0.00 52 1015.7
20260901223651 79 245 2.6 3.5 0.00 0.00 0.00 51 1016.1
20260901223146 79 263 1.7 2.6 0.00 0.00 0.00 51 1016.3
20260901222642 79 39 1.7 2.6 0.00 0.00 0.00 50 1016.2
20260901222138 79 303 1.7 2.6 0.00 0.00 0.00 51 1016.2
20260901221634 79 304 3.5 5.2 0.00 0.00 0.00 49 1016.4
20260901221129 80 283 1.7 2.6 0.00 0.00 0.00 50 1016.2
20260901220628 79 258 1.7 5.2 0.00 0.00 0.00 48 1016.2
20260901220127 80 297 2.6 3.5 0.00 0.00 0.00 48 1016.1
20260901215625 80 260 1.7 3.5 0.00 0.00 0.00 49 1016.2
20260901215120 80 246 0.9 5.2 0.00 0.00 0.00 48 1016.1
20260901214618 80 341 1.7 2.6 0.00 0.00 0.00 48 1016.0
20260901214112 80 251 1.7 2.6 0.00 0.00 0.00 47 1016.0
20260901213607 80 297 1.7 2.6 0.00 0.00 0.00 47 1016.2
20260901213101 80 254 1.7 3.5 0.00 0.00 0.00 46 1015.8
20260901212555 81 240 1.7 3.5 0.00 0.00 0.00 46 1015.8
20260901212052 80 282 3.5 6.1 0.00 0.00 0.00 46 1016.0
20260901211547 80 257 2.6 5.2 0.00 0.00 0.00 46 1016.2
20260901211044 80 233 2.6 3.5 0.00 0.00 0.00 47 1016.3
20260901210538 81 264 3.5 3.5 0.00 0.00 0.00 47 1016.1
20260901210035 81 255 1.7 3.5 0.00 0.00 0.00 47 1016.1
20260901205529 82 317 1.7 6.1 0.00 0.00 0.00 45 1016.1
20260901205024 82 327 2.6 3.5 0.00 0.00 0.00 46 1015.9
20260901204520 83 343 4.3 6.1 0.00 0.00 0.00 42 1016.0
20260901204015 83 280 1.7 5.2 0.00 0.00 0.00 43 1016.1
20260901203510 82 238 2.6 3.5 0.00 0.00 0.00 43 1016.0
20260901203004 81 325 1.7 1.7 0.00 0.00 0.00 47 1015.9
20260901202459 81 325 1.7 5.2 0.00 0.00 0.00 48 1016.0
20260901201955 82 352 3.5 5.2 0.00 0.00 0.00 47 1015.9
20260901201449 84 14 4.3 6.1 0.00 0.00 0.00 46 1015.9
20260901200943 83 346 0.9 2.6 0.00 0.00 0.00 49 1015.9
20260901200433 82 308 1.7 5.2 0.00 0.00 0.00 48 1016.0
20260901195932 83 21 0.0 2.6 0.00 0.00 0.00 48 1016.1
20260901195431 82 318 4.3 6.1 0.00 0.00 0.00 48 1015.9
20260901194926 82 4 3.5 3.5 0.00 0.00 0.00 48 1016.1
20260901194421 81 347 3.5 5.2 0.00 0.00 0.00 50 1016.1
20260901193917 81 337 2.6 5.2 0.00 0.00 0.00 48 1016.2
20260901193415 82 346 1.7 2.6 0.00 0.00 0.00 51 1016.3
20260901192910 81 276 1.7 7.0 0.00 0.00 0.00 47 1016.4
20260901192406 82 229 1.7 5.2 0.00 0.00 0.00 46 1016.3
20260901191902 82 353 1.7 2.6 0.00 0.00 0.00 49 1016.2
20260901191357 81 358 3.5 5.2 0.00 0.00 0.00 50 1016.2
20260901190853 81 311 3.5 5.2 0.00 0.00 0.00 50 1016.4
20260901190352 82 63 2.6 3.5 0.00 0.00 0.00 49 1016.3
20260901185851 81 337 1.7 2.6 0.00 0.00 0.00 49 1016.3
20260901185344 81 247 1.7 6.1 0.00 0.00 0.00 47 1016.4
20260901184841 81 306 1.7 3.5 0.00 0.00 0.00 51 1016.5
20260901184335 80 255 1.7 2.6 0.00 0.00 0.00 52 1016.4
20260901183831 79 289 3.5 5.2 0.00 0.00 0.00 52 1016.1
20260901183330 78 325 2.6 3.5 0.00 0.00 0.00 53 1016.4
20260901182826 79 280 1.7 5.2 0.00 0.00 0.00 53 1016.3
20260901182326 79 22 0.9 2.6 0.00 0.00 0.00 55 1016.5
20260901181821 80 294 1.7 2.6 0.00 0.00 0.00 53 1016.6
20260901181315 79 283 1.7 1.7 0.00 0.00 0.00 52 1016.5
20260901180809 79 313 3.5 3.5 0.00 0.00 0.00 55 1016.6
20260901180308 79 313 2.6 6.1 0.00 0.00 0.00 55 1016.6
20260901175807 79 21 2.6 3.5 0.00 0.00 0.00 54 1016.7
20260901175305 80 42 2.6 2.6 0.00 0.00 0.00 54 1016.8
20260901174757 79 245 0.9 3.5 0.00 0.00 0.00 53 1017.0
20260901174253 79 275 1.7 2.6 0.00 0.00 0.00 53 1017.4
20260901173748 79 327 5.2 6.1 0.00 0.00 0.00 52 1017.0
20260901173243 78 348 2.6 2.6 0.00 0.00 0.00 55 1016.9
20260901172740 79 260 0.9 2.6 0.00 0.00 0.00 54 1017.2
20260901172238 79 306 1.7 2.6 0.00 0.00 0.00 55 1017.2
20260901171737 80 245 2.6 3.5 0.00 0.00 0.00 53 1017.1
20260901171236 79 217 0.9 2.6 0.00 0.00 0.00 53 1017.4
20260901170735 78 32 0.9 1.7 0.00 0.00 0.00 55 1017.1
20260901170230 79 323 1.7 2.6 0.00 0.00 0.00 56 1017.2
20260901165729 78 265 0.9 2.6 0.00 0.00 0.00 54 1017.4
20260901165228 78 210 1.7 2.6 0.00 0.00 0.00 57 1017.1
20260901164725 78 244 2.6 3.5 0.00 0.00 0.00 56 1017.4
20260901164220 79 319 1.7 2.6 0.00 0.00 0.00 53 1017.4
20260901163716 78 293 0.9 1.7 0.00 0.00 0.00 55 1017.2
20260901163214 78 269 0.9 2.6 0.00 0.00 0.00 55 1017.2
20260901162710 78 245 1.7 1.7 0.00 0.00 0.00 55 1017.1
20260901162209 78 249 1.7 2.6 0.00 0.00 0.00 54 1017.1
20260901161708 77 315 1.7 2.6 0.00 0.00 0.00 56 1017.2
20260901161204 78 257 1.7 5.2 0.00 0.00 0.00 53 1017.0
20260901160700 77 269 1.7 2.6 0.00 0.00 0.00 55 1017.1
20260901160155 76 340 1.7 2.6 0.00 0.00 0.00 55 1016.9
20260901155654 77 343 1.7 3.5 0.00 0.00 0.00 55 1017.0
20260901155149 77 318 2.6 3.5 0.00 0.00 0.00 56 1017.0
20260901154644 77 283 1.7 3.5 0.00 0.00 0.00 57 1017.2
20260901154138 76 259 2.6 3.5 0.00 0.00 0.00 55 1017.1
20260901153633 77 356 1.7 2.6 0.00 0.00 0.00 57 1017.1
20260901153127 76 359 0.9 5.2 0.00 0.00 0.00 59 1017.0
20260901152623 76 76 0.9 1.7 0.00 0.00 0.00 63 1017.0
20260901152121 77 37 2.6 3.5 0.00 0.00 0.00 59 1017.0
20260901151617 76 288 1.7 3.5 0.00 0.00 0.00 58 1017.1
20260901151116 76 314 1.7 3.5 0.00 0.00 0.00 62 1017.2
20260901150615 75 245 0.9 1.7 0.00 0.00 0.00 67 1017.2
20260901150113 74 226 0.0 1.7 0.00 0.00 0.00 70 1017.2
20260901145607 73 145 0.0 0.9 0.00 0.00 0.00 73 1017.5
20260901145106 73 241 0.9 1.7 0.00 0.00 0.00 70 1017.2
20260901144602 73 77 0.9 1.7 0.00 0.00 0.00 72 1017.2
20260901144057 73 332 0.9 2.6 0.00 0.00 0.00 72 1017.5
20260901143552 72 232 0.0 1.7 0.00 0.00 0.00 74 1017.6
20260901143049 73 319 0.9 2.6 0.00 0.00 0.00 71 1017.0
20260901142544 72 30 1.7 1.7 0.00 0.00 0.00 72 1017.2
20260901142043 73 159 0.0 1.7 0.00 0.00 0.00 74 1017.1
20260901141538 71 219 0.9 0.9 0.00 0.00 0.00 75 1017.5
20260901141033 70 214 0.0 1.7 0.00 0.00 0.00 77 1017.2
20260901140532 70 196 0.0 0.9 0.00 0.00 0.00 79 1017.2
20260901140027 71 179 0.0 0.0 0.00 0.00 0.00 76 1017.2
20260901135525 69 189 0.0 0.0 0.00 0.00 0.00 77 1017.4
20260901135021 68 191 0.0 0.9 0.00 0.00 0.00 82 1017.2
20260901134517 67 225 0.9 1.7 0.00 0.00 0.00 83 1017.5
20260901134012 67 216 0.0 0.9 0.00 0.00 0.00 83 1017.4
20260901133510 67 263 0.9 1.7 0.00 0.00 0.00 84 1017.2
20260901133010 66 194 0.0 0.9 0.00 0.00 0.00 87 1017.6
20260901132509 66 228 0.9 0.9 0.00 0.00 0.00 88 1017.4
20260901132009 65 230 0.9 1.7 0.00 0.00 0.00 89 1017.2
20260901131503 65 267 1.7 1.7 0.00 0.00 0.00 88 1017.2
20260901130958 65 193 1.7 2.6 0.00 0.00 0.00 88 1017.1
20260901130453 65 240 0.9 1.7 0.00 0.00 0.00 88 1017.0
20260901125950 65 268 1.7 1.7 0.00 0.00 0.00 88 1016.9
20260901125450 64 233 0.9 1.7 0.00 0.00 0.00 89 1016.9
20260901124945 63 259 1.7 2.6 0.00 0.00 0.00 90 1016.9
20260901124440 61 195 0.9 1.7 0.00 0.00 0.00 96 1016.7
20260901123935 61 227 0.9 0.9 0.00 0.00 0.00 99 1016.7
20260901123430 60 213 0.0 0.0 0.00 0.00 0.00 99 1016.6
20260901122928 59 208 0.0 0.0 0.00 0.00 0.00 99 1016.7
20260901122428 59 203 0.0 0.0 0.00 0.00 0.00 99 1016.6
20260901121927 58 203 0.0 0.0 0.00 0.00 0.00 99 1016.5
20260901121422 58 219 0.0 0.0 0.00 0.00 0.00 99 1016.6
20260901120917 58 219 0.0 0.0 0.00 0.00 0.00 99 1016.5
20260901120417 58 220 0.0 0.0 0.00 0.00 0.00 99 1016.3
20260901115913 58 222 0.0 0.0 0.00 0.00 0.00 99 1016.4
20260901115412 59 232 0.0 0.0 0.00 0.00 0.00 99 1016.4
20260901114911 58 231 0.0 0.0 0.00 0.00 0.00 99 1016.4
20260901114406 57 212 0.0 0.0 0.00 0.00 0.00 99 1016.6
20260901113904 58 211 0.0 0.0 0.00 0.00 0.00 99 1016.4
20260901113403 57 206 0.0 0.0 0.00 0.00 0.00 99 1016.2
20260901112858 58 206 0.0 0.0 0.00 0.00 0.00 99 1016.2
20260901112353 58 239 0.0 0.0 0.00 0.00 0.00 99 1016.2
20260901111848 58 251 0.0 0.0 0.00 0.00 0.00 98 1016.1
20260901111347 59 187 0.0 0.0 0.00 0.00 0.00 98 1016.0
20260901110845 59 193 0.0 0.0 0.00 0.00 0.00 98 1016.0
20260901110341 58 191 0.0 0.0 0.00 0.00 0.00 98 1015.9
20260901105837 58 188 0.0 0.0 0.00 0.00 0.00 98 1015.8
20260901105332 59 186 0.0 0.0 0.00 0.00 0.00 97 1015.7
20260901104829 59 215 0.0 0.0 0.00 0.00 0.00 96 1015.7
20260901104324 59 215 0.0 0.0 0.00 0.00 0.00 96 1015.5
20260901103819 59 193 0.0 0.0 0.00 0.00 0.00 95 1015.6
20260901103319 59 219 0.0 0.0 0.00 0.00 0.00 94 1015.7
20260901102814 60 173 0.0 0.0 0.00 0.00 0.00 93 1015.9
20260901102308 60 173 0.0 0.0 0.00 0.00 0.00 92 1015.6
20260901101804 61 155 0.0 0.0 0.00 0.00 0.00 91 1015.8
20260901101303 62 184 0.0 0.0 0.00 0.00 0.00 88 1015.5
20260901100803 63 216 0.0 0.0 0.00 0.00 0.00 86 1015.4
20260901100258 64 212 0.0 0.9 0.00 0.00 0.00 85 1015.6
20260901095756 64 219 0.0 0.0 0.00 0.00 0.00 85 1015.4
20260901095254 64 246 0.9 1.7 0.00 0.00 0.00 84 1015.4
20260901094748 64 241 0.9 0.9 0.00 0.00 0.00 84 1015.5
20260901094243 65 258 0.9 0.9 0.00 0.00 0.00 84 1015.4
20260901093739 65 226 0.9 1.7 0.00 0.00 0.00 84 1015.4
20260901093237 65 289 1.7 1.7 0.00 0.00 0.00 85 1015.3
20260901092734 65 247 0.9 1.7 0.00 0.00 0.00 85 1015.4
20260901092229 64 251 0.9 0.9 0.00 0.00 0.00 88 1015.3
20260901091725 63 233 0.9 0.9 0.00 0.00 0.00 90 1015.4
20260901091220 62 234 0.0 0.9 0.00 0.00 0.00 93 1015.4
20260901090715 61 237 0.0 0.0 0.00 0.00 0.00 97 1015.3
20260901090210 61 218 0.0 0.0 0.00 0.00 0.00 98 1015.3